Address 0xae934f0ac7318a848bc1239fbd7bfca09b6544b3

 
Txn Hash
Block
From
To
Value [Txn Fee]
0x4a2a21d9531aab844ae9c71d935949b8af985db979fde34ffaa1c5cc2a942f6a64341982021-04-10 4:50:372 days 1 hr ago0xae934f0ac7318a848bc1239fbd7bfca09b6544b3OUT 0xabfd8d1942628124ab971937154f826bce86dcbc0 BNB0.000457085
0x4799312f8bef841ae5d4315ea0cab272c265b77bc054436983e4e64d57bdd0e364341072021-04-10 4:46:042 days 1 hr ago0xae934f0ac7318a848bc1239fbd7bfca09b6544b3OUT PancakeSwap: Router0 BNB0.00082359
0x239df70f47da553ebbcd89c203e6db65c5220f84276cf060cc299b009f54ff2164340902021-04-10 4:45:132 days 1 hr ago0xae934f0ac7318a848bc1239fbd7bfca09b6544b3OUT PancakeSwap: Main Staking Contract0 BNB0.00086352
0x63f50580f830e56839477138df541750e8452751a55bb2cafde5a953e3c068b563944512021-04-08 19:28:093 days 10 hrs ago0xae934f0ac7318a848bc1239fbd7bfca09b6544b3OUT 0xe25ab6f05bbf6c1be953bf2d7df15b3e01b8e5a50 BNB0.000531915
0x0d1be0e154dfb9044f626a8d043f3229e4ce3454018e43b6c721414c0efcc83a63944402021-04-08 19:27:363 days 10 hrs ago0xae934f0ac7318a848bc1239fbd7bfca09b6544b3OUT PancakeSwap: Router0 BNB0.000831945
0xc4c567d583d47212c7e6dc78bc32ab77538e007e44728899384f5abc393eee5563944292021-04-08 19:27:033 days 10 hrs ago0xae934f0ac7318a848bc1239fbd7bfca09b6544b3OUT Anyswap: bBadger Token0 BNB0.00022211
0x42f7384b0f6abe886d1c12b52d52df231c158dc0208d8e72eeadbe21c0423ff063447922021-04-07 0:28:445 days 5 hrs ago0xae934f0ac7318a848bc1239fbd7bfca09b6544b3OUT PancakeSwap: Router0.01 BNB0.00111099
0xfafb65de2ba21cb5a607b8d0e8b17b6eedfaba31d3ec2630e0affb8a6a876a4b63447362021-04-07 0:25:565 days 5 hrs ago0xae934f0ac7318a848bc1239fbd7bfca09b6544b3OUT PancakeSwap: Router0.000011286589839 BNB0.0017088
0x732dd4c42525e9f44ce75fa128fe6a4bfbaa8453070b825f134d4f795b8a8fcb63406172021-04-06 20:56:545 days 8 hrs ago0xae934f0ac7318a848bc1239fbd7bfca09b6544b3OUT Oddz: ODDZ Token0 BNB0.00044406
0x3584f526d7bc26d02bff640c76a8667789be933d016eca7f6c9df95199e66aa963405972021-04-06 20:55:545 days 8 hrs ago0xae934f0ac7318a848bc1239fbd7bfca09b6544b3OUT PancakeSwap: Router0 BNB0.00160793
0x6463b7859b22c05690d844649a312bdc018391f9167f4877661ee992e966995163404792021-04-06 20:50:005 days 9 hrs ago0xae934f0ac7318a848bc1239fbd7bfca09b6544b3OUT 0xe25ab6f05bbf6c1be953bf2d7df15b3e01b8e5a50 BNB0.00106395
0x63d8441b95f02feeb39bcf36290f841ea0848148988ce07313ced6fe78deb62263404702021-04-06 20:49:335 days 9 hrs ago0xae934f0ac7318a848bc1239fbd7bfca09b6544b3OUT PancakeSwap: Router0.02 BNB0.00125986
0x327b2d59b63cd34f0c516ccd93ab037879644994234108ed1571aed3060393ca63404472021-04-06 20:48:245 days 9 hrs ago0xae934f0ac7318a848bc1239fbd7bfca09b6544b3OUT 0xe25ab6f05bbf6c1be953bf2d7df15b3e01b8e5a50 BNB0.001004
0xce2450ea19a1af37fe05442ff3397252ea46deb3fb55572bed7b8e1128d42f5863404412021-04-06 20:48:065 days 9 hrs ago0xae934f0ac7318a848bc1239fbd7bfca09b6544b3OUT PancakeSwap: Main Staking Contract0 BNB0.00136382
0x1f547b64092ccae66bfa5a4c79ccd15d43b79089d4980a6d86ed63510e749f0363404342021-04-06 20:47:455 days 9 hrs ago0xae934f0ac7318a848bc1239fbd7bfca09b6544b3OUT PancakeSwap: CAKE Token0 BNB0.0004443
0x354c437c7b5d4e246dcfd4644c6f6e6a33a8b6d0f9f6355defcf156031fb77e363404102021-04-06 20:46:335 days 9 hrs agoBinance: Hot Wallet IN 0xae934f0ac7318a848bc1239fbd7bfca09b6544b30.04940144 BNB0.000231
0x255d38d4387411f778294bd7eae6bc3eca8a912cb042844bdac4a68ab112b44963402482021-04-06 20:38:275 days 9 hrs ago0xae934f0ac7318a848bc1239fbd7bfca09b6544b3OUT PancakeSwap: ODDZ 90 BNB0.00044331
0xfe7d1f6fb2c493d0ed48387caef0c7601fe31ae7315a482875c6063492dae74b63230872021-04-06 5:56:555 days 23 hrs ago0xae934f0ac7318a848bc1239fbd7bfca09b6544b3OUT 0x42f6f551ae042cbe50c739158b4f0cac0edb90960 BNB0.0004443
0xd4b7258884c30d1ee7dd15df9be7d32f9e2068ea7510e9e949daf4d60da19b7d63076122021-04-05 16:57:046 days 12 hrs ago0xae934f0ac7318a848bc1239fbd7bfca09b6544b3OUT 0xabfd8d1942628124ab971937154f826bce86dcbc0 BNB0.00106429
0xb72caac2a7cbb3a844a8df2885539fa269b8bb862ed17011449ea33218a9e38063075572021-04-05 16:54:196 days 12 hrs ago0xae934f0ac7318a848bc1239fbd7bfca09b6544b3OUT 0xce54ba909d23b9d4be0ff0d84e5ae83f0add8d9a0 BNB0.00100788
0x627564f7e59aeefe37ef16000f4a0f02b7327e3c185e3500f029be0c94465f0f63063132021-04-05 15:42:486 days 14 hrs ago0xae934f0ac7318a848bc1239fbd7bfca09b6544b3OUT PancakeSwap: NRV 20 BNB0.00044331
0x5f67bb44b67fa29458d669717f151731cf0c6046a57493f0c3ffe0e18588ba0262946162021-04-05 5:42:397 days 11 mins ago0xae934f0ac7318a848bc1239fbd7bfca09b6544b3OUT 0xabfd8d1942628124ab971937154f826bce86dcbc0 BNB0.00100376
0x5b6c9870448540a96e2a1e0fbc10cc3767c9e452e609d87c683da0cbbe746e0b62946112021-04-05 5:42:237 days 11 mins ago0xae934f0ac7318a848bc1239fbd7bfca09b6544b3OUT PancakeSwap: CAKE Token0 BNB0.0004443
0xc40abab82d02f9ecc8487a7100fa423786a41914cecfe22b9e08bbd9e3b6670e62845932021-04-04 21:19:417 days 8 hrs ago0xae934f0ac7318a848bc1239fbd7bfca09b6544b3OUT PancakeSwap: Main Staking Contract0 BNB0.00122616
0x3b3c386dfc8c31e3709c1d632ad528e2c1ad4f1d68d43c2918b1e08d8d6da47162842182021-04-04 21:00:317 days 8 hrs ago0xae934f0ac7318a848bc1239fbd7bfca09b6544b3OUT 0xe4dd0c50fb314a8b2e84d211546f5b57edd7c2b90 BNB0.00106316
[ Download CSV Export 
Latest 9 internal transactions
Parent Txn Hash Block From To Value
0x5d5dd23db9f2732697876b6f88209419e6dd358ed50ec0c7131ac2967fd6afa962815152021-04-04 18:44:267 days 11 hrs ago PancakeSwap: Router0xae934f0ac7318a848bc1239fbd7bfca09b6544b30.000000038388161041 BNB
0x51d6574b39aae31f38afcda8f9a3ab839d8fd3d57436446c36d40088c9712eca62354882021-04-03 3:49:529 days 2 hrs ago PancakeSwap: Router0xae934f0ac7318a848bc1239fbd7bfca09b6544b30.000002348033600422 BNB
0x2689466a3c0610112e98b4f9c7af881563a9d333d31ecf59cb68c0b46e9b21b062354462021-04-03 3:47:469 days 2 hrs ago PancakeSwap: Router0xae934f0ac7318a848bc1239fbd7bfca09b6544b30.000002306752093872 BNB
0xa0448535e0da93bf616d8ca8ea0fb3198018bc8a9cf1e580576c6bb0c25b51f662116682021-04-02 7:45:359 days 22 hrs ago PancakeSwap: Router0xae934f0ac7318a848bc1239fbd7bfca09b6544b30.000000169121312144 BNB
0x27e7c9a28a4b92b7002cd84484e88aefce99ec891c9a42122f2ba2529e3f2cde62113772021-04-02 7:31:019 days 22 hrs ago PancakeSwap: Router0xae934f0ac7318a848bc1239fbd7bfca09b6544b30.02661941067327843 BNB
0x95bae5e506a9d9c7b7874cf3d6f9c0524876cb6bfd0d26df057b43cad7e56b6c61946702021-04-01 17:23:1110 days 12 hrs ago BSC: Token Hub0xae934f0ac7318a848bc1239fbd7bfca09b6544b30.01944 BNB
0xc4fef5bfebf623410cba46af30f7d0765b85b3bf50a36be828c52aaba3faa14961077112021-03-29 16:36:4213 days 13 hrs ago PancakeSwap: Router0xae934f0ac7318a848bc1239fbd7bfca09b6544b30.01134191151234989 BNB
0xd938108645bcb05b4a0c203fc306f1922c9275ed8a3f5ae858586fd93fa1068861063832021-03-29 15:30:1813 days 14 hrs ago PancakeSwap: Router0xae934f0ac7318a848bc1239fbd7bfca09b6544b31 wei
0xf3e6e44287255d6b22774989f247d473fe610affd9d8c77e8f980a2ccea63e1d34654922020-12-27 13:24:12105 days 16 hrs ago PancakeSwap: Router0xae934f0ac7318a848bc1239fbd7bfca09b6544b30.401765891236897447 BNB
[ Download CSV Export 
Loading

Contract Name:
0 BNB

Compiler Version
0

Optimization Enabled:
0 BNB

Other Settings:
-NA-
Block Transaction Gas Used Reward
Age Block Fee Address BC Fee Address Voting Power Jailed Incoming
Block Uncle Number Difficulty Gas Used Reward
Loading
Loading
Make sure to use the "Vote Down" button for any spammy posts, and the "Vote Up" for interesting conversations.